UAE3447 FMMI-FIMP

Flight info

Callsign UAE3447
Flight time N/A
Altitude 41000
Route PIPRI1E TE UA400 RASMA RASMA2E
Aircraft A359/H-SDE2E3GHIJ3J4J5LM1ORWXY/LB1D1

Departure

Time N/A
Airport Ivato International Airport (FMMI)

Arrival

Time 2026-05-05 14:31
Airport Sir Seewoosagur Ramgoolam International Airport (FIMP)
Time Latitude Longitude Altitude Speed Heading
2026-05-05 13:13 -18.91061 48.02623 19024 ft 385 kts 103°
2026-05-05 13:14 -18.91645 48.05415 19526 ft 388 kts 103°
2026-05-05 13:14 -18.92226 48.08194 20067 ft 391 kts 104°
2026-05-05 13:14 -18.92821 48.11034 20588 ft 396 kts 104°
2026-05-05 13:14 -18.93413 48.13864 21105 ft 401 kts 104°
2026-05-05 13:15 -18.94021 48.16774 21646 ft 405 kts 104°
2026-05-05 13:15 -18.94627 48.19679 22179 ft 409 kts 104°
2026-05-05 13:15 -18.95240 48.22615 22709 ft 413 kts 104°
2026-05-05 13:15 -18.95845 48.25617 23232 ft 418 kts 103°
2026-05-05 13:16 -18.96409 48.28655 23766 ft 422 kts 103°
2026-05-05 13:16 -18.96953 48.31701 24216 ft 427 kts 102°
2026-05-05 13:16 -18.97497 48.34783 24677 ft 431 kts 102°
2026-05-05 13:16 -18.98058 48.37940 25139 ft 436 kts 103°
2026-05-05 13:17 -18.98619 48.41076 25576 ft 441 kts 103°
2026-05-05 13:17 -18.99199 48.44289 26040 ft 445 kts 103°
2026-05-05 13:17 -18.99779 48.47489 26493 ft 450 kts 103°
2026-05-05 13:17 -19.00376 48.50775 26937 ft 454 kts 103°
2026-05-05 13:18 -19.00971 48.54048 27380 ft 459 kts 103°
2026-05-05 13:18 -19.01579 48.57399 27805 ft 464 kts 103°
2026-05-05 13:18 -19.02185 48.60742 28246 ft 468 kts 103°
2026-05-05 13:18 -19.02801 48.64142 28681 ft 472 kts 103°
2026-05-05 13:19 -19.03415 48.67539 29093 ft 476 kts 103°
2026-05-05 13:19 -19.04044 48.71018 29473 ft 482 kts 103°
2026-05-05 13:19 -19.04670 48.74491 29870 ft 486 kts 103°
2026-05-05 13:19 -19.05302 48.77993 30257 ft 490 kts 104°
2026-05-05 13:20 -19.05947 48.81583 30630 ft 493 kts 103°
2026-05-05 13:20 -19.06585 48.85140 31046 ft 494 kts 103°
2026-05-05 13:20 -19.07222 48.88693 31435 ft 496 kts 103°
2026-05-05 13:20 -19.07864 48.92276 31785 ft 499 kts 103°
2026-05-05 13:21 -19.08515 48.95912 32170 ft 501 kts 103°
2026-05-05 13:21 -19.09162 48.99528 32531 ft 503 kts 103°
2026-05-05 13:21 -19.09816 49.03188 32907 ft 505 kts 103°
2026-05-05 13:21 -19.10463 49.06814 33238 ft 508 kts 103°
2026-05-05 13:22 -19.11123 49.10515 33561 ft 510 kts 103°
2026-05-05 13:22 -19.11777 49.14191 33864 ft 512 kts 103°
2026-05-05 13:22 -19.12433 49.17877 34158 ft 514 kts 103°
2026-05-05 13:22 -19.13099 49.21627 34419 ft 516 kts 103°
2026-05-05 13:23 -19.13758 49.25347 34683 ft 517 kts 103°
2026-05-05 13:23 -19.14417 49.29068 35046 ft 516 kts 103°
2026-05-05 13:23 -19.15076 49.32799 35451 ft 514 kts 103°
2026-05-05 13:23 -19.15733 49.36522 35814 ft 513 kts 103°
2026-05-05 13:24 -19.16384 49.40213 36174 ft 512 kts 103°
2026-05-05 13:24 -19.17038 49.43926 36534 ft 510 kts 103°
2026-05-05 13:24 -19.17681 49.47577 36880 ft 509 kts 103°
2026-05-05 13:24 -19.18332 49.51279 37224 ft 508 kts 103°
2026-05-05 13:25 -19.18761 49.53720 37454 ft 507 kts 103°
2026-05-05 13:25 -19.19402 49.57368 37793 ft 506 kts 103°
2026-05-05 13:25 -19.20259 49.62260 38241 ft 504 kts 103°
2026-05-05 13:25 -19.20891 49.65872 38551 ft 503 kts 103°
2026-05-05 13:26 -19.21525 49.69498 38825 ft 502 kts 103°
2026-05-05 13:26 -19.22158 49.73122 39053 ft 501 kts 103°
2026-05-05 13:26 -19.22798 49.76788 39289 ft 501 kts 103°
2026-05-05 13:26 -19.23427 49.80399 39522 ft 500 kts 103°
2026-05-05 13:27 -19.24052 49.83990 39729 ft 499 kts 103°
2026-05-05 13:27 -19.24471 49.86404 39902 ft 499 kts 103°
2026-05-05 13:27 -19.25307 49.91219 40174 ft 497 kts 103°
2026-05-05 13:27 -19.25933 49.94828 40372 ft 497 kts 103°
2026-05-05 13:28 -19.26553 49.98410 40587 ft 496 kts 103°
2026-05-05 13:28 -19.27169 50.01971 40780 ft 495 kts 103°
2026-05-05 13:28 -19.27787 50.05549 40963 ft 495 kts 103°
2026-05-05 13:28 -19.28404 50.09121 41034 ft 497 kts 103°
2026-05-05 13:29 -19.29659 50.16380 41036 ft 502 kts 103°
2026-05-05 13:29 -19.30900 50.23625 41039 ft 502 kts 102°
2026-05-05 13:30 -19.32143 50.30904 41038 ft 502 kts 102°
2026-05-05 13:30 -19.33379 50.38148 41040 ft 502 kts 102°
2026-05-05 13:31 -19.34619 50.45432 41034 ft 502 kts 102°
2026-05-05 13:31 -19.35857 50.52712 41037 ft 502 kts 102°
2026-05-05 13:32 -19.36879 50.58743 41036 ft 502 kts 102°
2026-05-05 13:32 -19.38110 50.66022 41041 ft 502 kts 102°
2026-05-05 13:33 -19.39340 50.73309 41036 ft 502 kts 102°
2026-05-05 13:33 -19.40565 50.80593 41039 ft 502 kts 102°
2026-05-05 13:34 -19.41784 50.87854 41040 ft 502 kts 102°
2026-05-05 13:34 -19.43000 50.95116 41039 ft 502 kts 102°
2026-05-05 13:35 -19.44283 51.02796 41040 ft 502 kts 102°
2026-05-05 13:35 -19.45491 51.10045 41036 ft 502 kts 102°
2026-05-05 13:36 -19.46698 51.17312 41035 ft 502 kts 102°
2026-05-05 13:36 -19.47658 51.23103 41037 ft 502 kts 102°
2026-05-05 13:37 -19.48784 51.29909 41037 ft 502 kts 102°
2026-05-05 13:37 -19.49981 51.37167 41037 ft 502 kts 102°
2026-05-05 13:38 -19.51185 51.44479 41040 ft 503 kts 102°
2026-05-05 13:38 -19.52384 51.51784 41041 ft 503 kts 102°
2026-05-05 13:39 -19.52777 51.54185 41040 ft 503 kts 102°
2026-05-05 13:40 -19.55959 51.73677 41039 ft 504 kts 102°
2026-05-05 13:40 -19.57147 51.81003 41045 ft 503 kts 102°
2026-05-05 13:41 -19.58331 51.88309 41042 ft 504 kts 102°
2026-05-05 13:41 -19.59514 51.95627 41043 ft 504 kts 102°
2026-05-05 13:42 -19.60695 52.02953 41037 ft 504 kts 102°
2026-05-05 13:42 -19.61874 52.10285 41047 ft 504 kts 102°
2026-05-05 13:43 -19.63046 52.17599 41035 ft 504 kts 102°
2026-05-05 13:43 -19.64213 52.24893 41036 ft 504 kts 102°
2026-05-05 13:44 -19.65385 52.32244 41036 ft 504 kts 102°
2026-05-05 13:44 -19.66548 52.39557 41035 ft 504 kts 102°
2026-05-05 13:45 -19.67710 52.46888 41040 ft 502 kts 101°
2026-05-05 13:45 -19.68846 52.54085 41047 ft 489 kts 101°
2026-05-05 13:46 -19.69964 52.61170 41045 ft 487 kts 102°
2026-05-05 13:46 -19.71083 52.68276 41039 ft 488 kts 101°
2026-05-05 13:47 -19.72197 52.75367 41044 ft 488 kts 101°
2026-05-05 13:47 -19.73304 52.82441 41042 ft 488 kts 101°
2026-05-05 13:48 -19.74415 52.89556 41038 ft 488 kts 101°
2026-05-05 13:48 -19.75517 52.96638 41038 ft 488 kts 101°
2026-05-05 13:49 -19.76620 53.03740 41044 ft 488 kts 101°
2026-05-05 13:49 -19.77725 53.10878 41041 ft 488 kts 101°
2026-05-05 13:50 -19.78818 53.17953 41044 ft 488 kts 101°
2026-05-05 13:50 -19.79917 53.25090 41040 ft 488 kts 101°
2026-05-05 13:51 -19.81007 53.32187 41045 ft 489 kts 101°
2026-05-05 13:51 -19.82097 53.39304 41040 ft 489 kts 101°
2026-05-05 13:52 -19.83187 53.46440 41049 ft 489 kts 101°
2026-05-05 13:52 -19.84275 53.53584 41041 ft 489 kts 101°
2026-05-05 13:53 -19.85357 53.60707 41038 ft 489 kts 101°
2026-05-05 13:53 -19.86437 53.67837 41044 ft 489 kts 101°
2026-05-05 13:54 -19.87510 53.74937 41042 ft 489 kts 101°
2026-05-05 13:54 -19.88585 53.82071 41048 ft 489 kts 101°
2026-05-05 13:55 -19.89658 53.89213 41038 ft 489 kts 101°
2026-05-05 13:55 -19.90724 53.96332 41044 ft 489 kts 101°
2026-05-05 13:56 -19.91790 54.03466 41047 ft 489 kts 101°
2026-05-05 13:56 -19.92853 54.10599 41041 ft 489 kts 101°
2026-05-05 13:57 -19.93912 54.17724 41044 ft 489 kts 101°
2026-05-05 13:57 -19.94974 54.24897 41047 ft 489 kts 101°
2026-05-05 13:58 -19.96024 54.32002 41042 ft 490 kts 101°
2026-05-05 13:58 -19.97078 54.39163 41042 ft 490 kts 101°
2026-05-05 13:59 -19.98656 54.49924 41051 ft 490 kts 101°
2026-05-05 14:00 -20.00044 54.59424 41043 ft 490 kts 101°
2026-05-05 14:00 -20.01270 54.67813 41043 ft 491 kts 100°
2026-05-05 14:01 -20.02311 54.74993 41041 ft 491 kts 100°
2026-05-05 14:01 -20.03340 54.82118 41041 ft 491 kts 100°
2026-05-05 14:02 -20.04030 54.86897 41043 ft 491 kts 100°
2026-05-05 14:02 -20.05418 54.96535 41036 ft 498 kts 100°
2026-05-05 14:03 -20.06471 55.03863 41036 ft 505 kts 100°
2026-05-05 14:03 -20.07452 55.10719 41041 ft 509 kts 100°
2026-05-05 14:04 -20.07979 55.14399 40865 ft 507 kts 100°
2026-05-05 14:04 -20.08511 55.18131 40614 ft 505 kts 100°
2026-05-05 14:04 -20.09029 55.21783 40005 ft 505 kts 100°
2026-05-05 14:04 -20.09559 55.25520 39233 ft 509 kts 100°
2026-05-05 14:05 -20.10083 55.29225 38526 ft 511 kts 100°
2026-05-05 14:05 -20.10615 55.32986 37811 ft 511 kts 100°
2026-05-05 14:05 -20.11138 55.36693 37153 ft 510 kts 100°
2026-05-05 14:05 -20.11668 55.40445 36476 ft 510 kts 100°
2026-05-05 14:06 -20.12196 55.44193 35792 ft 511 kts 100°
2026-05-05 14:06 -20.12719 55.47914 35108 ft 512 kts 99°
2026-05-05 14:06 -20.13243 55.51643 34533 ft 511 kts 99°
2026-05-05 14:06 -20.13760 55.55409 34004 ft 509 kts 99°
2026-05-05 14:07 -20.14240 55.59074 33428 ft 506 kts 99°
2026-05-05 14:07 -20.14724 55.62795 32877 ft 503 kts 99°
2026-05-05 14:07 -20.15043 55.65247 32527 ft 501 kts 99°
2026-05-05 14:07 -20.15518 55.68884 32009 ft 497 kts 99°
2026-05-05 14:08 -20.16150 55.73717 31317 ft 493 kts 99°
2026-05-05 14:08 -20.16463 55.76115 30974 ft 490 kts 99°
2026-05-05 14:08 -20.17085 55.80878 30281 ft 486 kts 99°
2026-05-05 14:08 -20.17553 55.84464 29724 ft 483 kts 99°
2026-05-05 14:09 -20.18008 55.87956 29185 ft 478 kts 99°
2026-05-05 14:09 -20.18462 55.91453 28682 ft 472 kts 99°
2026-05-05 14:09 -20.18906 55.94876 28181 ft 467 kts 99°
2026-05-05 14:09 -20.19352 55.98312 27669 ft 462 kts 99°
2026-05-05 14:10 -20.19784 56.01665 27185 ft 458 kts 99°
2026-05-05 14:10 -20.20008 56.05012 26681 ft 454 kts 92°
2026-05-05 14:10 -20.20038 56.08384 26188 ft 450 kts 91°
2026-05-05 14:10 -20.20039 56.11686 25693 ft 446 kts 91°
2026-05-05 14:11 -20.20039 56.14995 25196 ft 442 kts 91°
2026-05-05 14:11 -20.20040 56.17130 24874 ft 440 kts 91°
2026-05-05 14:11 -20.20043 56.20399 24357 ft 436 kts 91°
2026-05-05 14:11 -20.20048 56.24667 23698 ft 431 kts 91°
2026-05-05 14:12 -20.20051 56.26806 23312 ft 429 kts 91°
2026-05-05 14:12 -20.20055 56.29948 22789 ft 424 kts 92°
2026-05-05 14:12 -20.20059 56.34074 22130 ft 416 kts 91°
2026-05-05 14:12 -20.20062 56.37151 21624 ft 411 kts 91°
2026-05-05 14:13 -20.20064 56.40159 21155 ft 406 kts 91°
2026-05-05 14:13 -20.20066 56.42154 20829 ft 403 kts 91°
2026-05-05 14:13 -20.20067 56.45134 20342 ft 398 kts 91°
2026-05-05 14:13 -20.20068 56.48045 19863 ft 394 kts 91°
2026-05-05 14:14 -20.20069 56.50972 19375 ft 390 kts 91°
2026-05-05 14:14 -20.20068 56.53823 18908 ft 386 kts 92°
2026-05-05 14:14 -20.20068 56.56661 18434 ft 383 kts 91°
2026-05-05 14:14 -20.20067 56.59499 17931 ft 380 kts 91°
2026-05-05 14:15 -20.20066 56.63203 17294 ft 373 kts 91°
2026-05-05 14:15 -20.20064 56.65032 16989 ft 370 kts 91°
2026-05-05 14:15 -20.20062 56.67774 16524 ft 365 kts 91°
2026-05-05 14:15 -20.20060 56.70430 16083 ft 360 kts 91°
2026-05-05 14:16 -20.20057 56.73094 15615 ft 355 kts 91°
2026-05-05 14:16 -20.20056 56.75682 15205 ft 350 kts 91°
2026-05-05 14:16 -20.20054 56.78269 14771 ft 346 kts 91°
2026-05-05 14:16 -20.20049 56.80827 14339 ft 342 kts 90°
2026-05-05 14:17 -20.20044 56.83323 13918 ft 338 kts 90°
2026-05-05 14:17 -20.20039 56.85816 13449 ft 334 kts 90°
2026-05-05 14:17 -20.20034 56.88256 13022 ft 328 kts 90°
2026-05-05 14:17 -20.20028 56.90670 12601 ft 323 kts 90°
2026-05-05 14:18 -20.20023 56.93051 12188 ft 318 kts 90°
2026-05-05 14:18 -20.20017 56.95373 11795 ft 313 kts 90°
2026-05-05 14:18 -20.20011 56.97669 11382 ft 309 kts 90°
2026-05-05 14:18 -20.20006 56.99963 10980 ft 308 kts 90°
2026-05-05 14:19 -20.19999 57.02173 10846 ft 294 kts 90°
2026-05-05 14:19 -20.19993 57.04311 10738 ft 281 kts 90°
2026-05-05 14:19 -20.19987 57.06331 10626 ft 270 kts 90°
2026-05-05 14:19 -20.19981 57.08320 10360 ft 267 kts 90°
2026-05-05 14:20 -20.19975 57.10272 10038 ft 265 kts 90°
2026-05-05 14:20 -20.19968 57.12288 9751 ft 278 kts 90°
2026-05-05 14:20 -20.19961 57.14361 9616 ft 284 kts 90°
2026-05-05 14:20 -20.19954 57.16437 9305 ft 280 kts 90°
2026-05-05 14:21 -20.19946 57.18521 8812 ft 281 kts 90°
2026-05-05 14:21 -20.19938 57.20585 8424 ft 279 kts 90°
2026-05-05 14:21 -20.19930 57.22654 8100 ft 276 kts 90°
2026-05-05 14:21 -20.19922 57.24675 7778 ft 273 kts 90°
2026-05-05 14:22 -20.19965 57.26692 7459 ft 273 kts 96°
2026-05-05 14:22 -20.20503 57.28614 7162 ft 273 kts 116°
2026-05-05 14:22 -20.21512 57.30305 6850 ft 272 kts 123°
2026-05-05 14:22 -20.22626 57.31955 6524 ft 271 kts 124°
2026-05-05 14:23 -20.23714 57.33558 6195 ft 268 kts 123°
2026-05-05 14:23 -20.24800 57.35172 5876 ft 265 kts 124°
2026-05-05 14:23 -20.25867 57.36765 5576 ft 265 kts 124°
2026-05-05 14:23 -20.26903 57.38318 5445 ft 252 kts 123°
2026-05-05 14:24 -20.27891 57.39799 5338 ft 238 kts 123°
2026-05-05 14:24 -20.28846 57.41209 5228 ft 226 kts 124°
2026-05-05 14:24 -20.29739 57.42521 5107 ft 215 kts 123°
2026-05-05 14:24 -20.30589 57.43765 5002 ft 204 kts 124°
2026-05-05 14:25 -20.31417 57.44973 4885 ft 200 kts 123°
2026-05-05 14:25 -20.32224 57.46159 4767 ft 199 kts 123°
2026-05-05 14:25 -20.32942 57.47431 4587 ft 198 kts 115°
2026-05-05 14:25 -20.33582 57.48715 4414 ft 196 kts 115°
2026-05-05 14:26 -20.34205 57.49987 4216 ft 193 kts 115°
2026-05-05 14:26 -20.34808 57.51251 3949 ft 191 kts 114°
2026-05-05 14:26 -20.35406 57.52500 3712 ft 187 kts 114°
2026-05-05 14:26 -20.35999 57.53735 3397 ft 182 kts 115°
2026-05-05 14:27 -20.36550 57.54882 3113 ft 169 kts 115°
2026-05-05 14:27 -20.37065 57.55954 2838 ft 155 kts 115°
2026-05-05 14:27 -20.37530 57.56924 2609 ft 142 kts 115°
2026-05-05 14:27 -20.37966 57.57835 2386 ft 134 kts 117°
2026-05-05 14:28 -20.38382 57.58699 2191 ft 128 kts 117°
2026-05-05 14:28 -20.38783 57.59531 2012 ft 127 kts 116°
2026-05-05 14:28 -20.39186 57.60369 1810 ft 126 kts 114°
2026-05-05 14:28 -20.39582 57.61197 1628 ft 125 kts 115°
2026-05-05 14:29 -20.39981 57.62029 1415 ft 126 kts 115°
2026-05-05 14:29 -20.40382 57.62864 1234 ft 127 kts 115°
2026-05-05 14:29 -20.40782 57.63697 1043 ft 126 kts 114°
2026-05-05 14:29 -20.41180 57.64529 854 ft 126 kts 115°
2026-05-05 14:30 -20.41585 57.65372 666 ft 128 kts 114°
2026-05-05 14:30 -20.41989 57.66207 467 ft 126 kts 115°
2026-05-05 14:30 -20.42392 57.67051 281 ft 130 kts 116°
2026-05-05 14:30 -20.42797 57.67893 207 ft 117 kts 118°
2026-05-05 14:31 -20.43117 57.68549 191 ft 84 kts 117°
2026-05-05 14:31 -20.43338 57.69008 162 ft 60 kts 117°
2026-05-05 14:31 -20.43454 57.69250 148 ft 18 kts 116°
2026-05-05 14:31 -20.43505 57.69355 141 ft 9 kts 120°
2026-05-05 14:32 -20.43563 57.69370 141 ft 9 kts 202°
2026-05-05 14:32 -20.43613 57.69342 146 ft 6 kts 208°
2026-05-05 14:32 -20.43641 57.69323 150 ft 6 kts 218°
2026-05-05 14:32 -20.43651 57.69261 158 ft 15 kts 284°
2026-05-05 14:33 -20.43598 57.69138 168 ft 18 kts 296°
2026-05-05 14:33 -20.43545 57.69025 176 ft 16 kts 296°
2026-05-05 14:33 -20.43492 57.68919 178 ft 17 kts 298°
2026-05-05 14:33 -20.43435 57.68802 180 ft 19 kts 296°
2026-05-05 14:34 -20.43374 57.68673 182 ft 20 kts 296°
2026-05-05 14:34 -20.43309 57.68535 195 ft 22 kts 298°
2026-05-05 14:34 -20.43258 57.68432 191 ft 10 kts 294°
2026-05-05 14:34 -20.43284 57.68382 194 ft 9 kts 222°
2026-05-05 14:35 -20.43288 57.68324 195 ft 9 kts 291°
2026-05-05 14:35 -20.43261 57.68263 201 ft 9 kts 297°
2026-05-05 14:35 -20.43231 57.68202 201 ft 9 kts 298°
2026-05-05 14:35 -20.43197 57.68129 205 ft 12 kts 295°
2026-05-05 14:36 -20.43155 57.68041 205 ft 11 kts 297°
2026-05-05 14:36 -20.43142 57.67984 201 ft 7 kts 252°
2026-05-05 14:36 -20.43179 57.67941 208 ft 10 kts 226°
2026-05-05 14:36 -20.43208 57.67909 205 ft 0 kts 225°
2026-05-05 14:37 -20.43209 57.67908 205 ft 0 kts 224°